Tracking 31080 objects as of 20-Jul-2025
HD Live streaming from Space Station
objects crossing your sky now

CZ-6A DEB

Track CZ-6A DEB now!
10-day predictions


NORAD ID: 55875
Int'l Code: 2022-151ZX
Perigee: 809.4 km
Apogee: 871.3 km
Inclination: 98.8 °
Period: 101.6 minutes
Semi major axis: 7211 km
RCS: Unknown
Launch date: November 11, 2022
Source: People's Republic of China (PRC)
Launch site: Taiyaun Space Center, China (TSC)

Note: This is SATELLITE DEBRIS
Your satellite tracking list
Your tracking list is empty




NASA's NSSDC Master Catalog

Two Line Element Set (TLE):
1 55875U 22151ZX  25200.49644527  .00001831  00000-0  91261-3 0  9996
2 55875  98.8220 206.1455 0042953 184.6419 175.4363 14.17681358126316
Source of the keplerian elements: AFSPC